SCP
1 2 2 3 2 2 2 2 2 1 2 2 2 1 2 2 1 1 1 1 1 1 1 1 1 1 1 1 2 3 3 3 3 3 3 2 1 1 1 1 1 1 1
2 2 3 3 3 2 2 2 2 1 2 2 2 1 1 1 1 1 1 1 1 1 1 0 0 1 1 1 2 3 3 3 3 3 2 2 1 1 1 1 1 1 1
2 3 3 3 3 3 3 2 2 2 2 2 1 1 1 1 1 1 1 1 1 1 1 0 1 1 1 1 2 3 3 3 3 2 1 1 1 1 1 1 1 1 1
3 3 4 4 4 4 3 3 2 2 2 2 1 1 1 1 1 1 1 1 1 1 1 1 1 1 2 2 2 3 3 3 2 1 1 0 0 1 1 1 1 1 1
3 4 4 5 5 4 4 3 3 2 2 2 1 1 1 1 1 1 1 1 1 1 1 1 1 2 2 2 2 2 2 2 1 1 0 0 0 1 1 1 1 1 1
4 4 5 5 5 5 4 3 3 2 2 2 1 1 1 1 1 1 1 1 1 1 1 1 2 2 2 2 2 1 1 1 1 0 0 0 0 0 1 1 1 1 1
4 4 5 5 5 5 4 4 3 3 2 2 1 1 1 1 1 1 1 1 1 1 1 1 2 2 2 1 1 1 1 0 0 0 0 0 0 1 1 1 1 1 1
5 5 5 5 5 5 4 4 3 3 2 2 1 1 1 1 1 1 1 1 1 1 1 1 1 2 1 1 1 1 0 0 0 0 0 0 0 1 1 1 1 1 1
6 5 5 5 5 5 4 4 3 3 3 2 2 1 1 1 1 1 1 1 1 1 1 1 1 1 1 1 1 0 0 0 0 0 0 0 0 1 1 1 1 1 1
7 6 6 6 5 5 4 3 3 3 3 2 2 2 1 1 1 1 1 1 1 1 1 1 1 1 1 1 1 0 0 0 0 0 0 0 0 1 1 1 1 1 1
9 8 7 6 6 5 4 4 4 3 3 2 2 2 1 1 1 1 1 1 1 1 1 1 1 1 1 1 1 0 0 0 0 0 0 0 0 1 1 1 1 1 1
11 10 8 7 6 6 5 5 4 4 3 2 2 2 1 1 1 1 1 1 1 1 1 1 1 1 1 0 0 0 0 0 0 0 0 0 1 1 0 1 1 1 1
13 12 9 8 7 7 6 6 5 4 3 2 2 2 1 1 1 1 1 1 1 1 1 1 1 1 1 0 0 0 0 0 0 0 0 0 1 1 0 0 1 1 1
16 14 11 9 8 8 7 7 6 5 4 3 2 1 1 1 1 1 1 1 1 1 1 1 1 1 1 0 0 0 0 0 0 0 0 0 0 0 0 0 0 1 1
18 16 13 11 9 8 8 7 6 5 4 3 2 2 1 1 1 1 1 1 1 1 1 1 1 1 1 0 0 0 0 0 1 1 1 0 0 0 0 0 0 1 1
20 17 14 12 10 9 8 8 7 6 5 4 3 2 1 1 1 1 0 0 1 1 1 1 1 1 1 0 0 0 0 1 1 1 1 1 1 1 0 0 0 0 1
20 18 15 12 11 9 8 8 7 7 5 4 3 2 1 1 1 1 0 0 0 1 1 1 2 1 1 1 0 0 0 1 1 1 1 1 1 1 1 1 1 1 1
16 16 14 13 11 9 8 8 8 7 6 5 4 3 2 1 1 0 0 0 0 1 1 2 2 2 1 0 0 0 0 1 1 1 1 1 1 1 1 1 1 1 1
11 11 12 12 11 10 9 8 8 7 6 6 4 3 2 1 1 0 0 0 0 0 1 1 2 2 1 0 0 0 0 1 1 1 1 1 1 1 1 1 1 1 0
5 7 8 9 10 10 9 8 7 7 6 6 5 3 2 1 1 0 0 0 0 0 0 1 1 1 1 0 0 0 0 1 1 1 1 1 1 1 1 1 0 0 0
2 3 5 6 7 7 7 7 6 6 6 6 5 3 2 1 1 0 0 0 0 0 0 0 1 1 0 0 0 0 0 0 1 1 1 1 1 1 1 1 0 0 0
2 2 3 4 4 4 4 4 5 5 5 5 4 3 2 1 1 1 0 0 0 0 0 0 0 1 0 0 0 0 0 0 0 1 1 1 1 1 1 1 0 0 0
2 2 3 3 3 2 2 2 3 4 5 5 4 3 2 1 1 1 1 1 0 0 0 0 0 1 0 0 0 0 0 0 0 0 0 1 1 1 1 0 0 0 0
2 2 3 3 2 1 1 1 2 3 3 4 3 3 2 1 1 1 1 1 0 0 0 0 0 0 0 0 0 0 0 0 0 0 0 0 0 1 1 0 0 0 0
1 1 2 2 2 1 1 1 1 2 2 2 3 3 2 2 1 1 1 1 1 0 0 0 0 0 0 0 0 0 0 0 0 0 0 0 0 0 0 0 0 0 0
1 1 1 2 2 1 1 1 1 1 1 2 3 3 3 2 1 1 1 1 1 0 0 0 0 0 0 0 0 0 0 0 0 0 0 0 0 0 0 0 0 0 0
Wind_Speed
3 4 7 9 9 9 10 10 10 10 10 11 12 12 12 12 12 12 11 11 12 12 12 12 13 13 14 15 15 16 16 16 16 16 15 15 16 16 16 16 14 11 17
5 5 8 9 9 9 10 10 10 10 10 10 11 11 11 11 11 11 12 12 12 12 12 12 13 14 14 15 15 16 16 16 15 15 13 12 13 15 16 15 14 11 17
6 5 7 9 10 10 10 10 10 10 10 10 10 11 11 11 11 11 12 12 12 12 12 13 13 14 15 15 16 16 16 16 15 14 12 7 9 15 16 16 16 17 16
6 5 6 9 10 10 9 10 10 10 10 10 10 11 11 11 11 11 12 12 12 12 13 13 14 14 15 15 16 16 16 16 16 13 7 6 6 14 15 16 16 16 16
6 4 5 9 10 10 10 10 10 10 10 10 10 11 11 11 11 11 11 12 12 12 13 13 14 14 15 15 16 16 16 16 15 11 7 6 6 13 15 16 16 16 16
6 4 5 9 9 9 10 10 10 10 10 10 11 11 12 12 11 11 11 12 12 12 13 14 14 14 15 15 16 16 16 16 12 7 6 6 6 14 15 15 15 16 16
6 4 5 9 9 9 9 10 10 10 10 10 11 11 11 12 12 12 12 12 11 12 13 14 14 14 15 16 16 16 16 15 9 7 6 5 8 15 15 15 15 15 15
6 5 4 8 9 9 9 9 9 10 11 10 11 11 11 11 12 12 12 12 12 13 13 13 14 15 15 16 16 16 15 13 9 8 6 6 11 15 15 15 15 15 15
6 5 4 4 5 7 8 9 8 8 10 10 11 11 11 11 11 11 12 12 13 13 13 13 14 15 15 15 16 15 15 14 7 5 6 5 12 14 15 15 15 15 15
5 5 4 4 4 4 4 7 8 9 9 10 11 11 11 11 10 11 10 12 12 13 13 13 14 14 15 15 15 15 14 11 6 5 4 6 13 14 14 15 15 15 15
4 4 4 4 4 3 3 6 7 8 9 9 8 11 9 5 5 6 9 11 12 13 13 13 14 14 14 14 14 14 10 5 5 4 4 10 13 14 14 14 14 14 14
4 3 3 3 3 3 3 4 3 3 4 4 4 5 4 4 5 6 10 11 12 12 12 13 14 12 9 6 9 10 5 5 5 4 4 11 13 13 13 13 14 14 14
4 4 3 3 3 3 3 3 2 2 3 3 4 5 4 4 4 4 4 5 6 8 6 7 7 5 5 4 4 5 5 5 3 3 5 11 12 13 12 12 13 13 13
4 3 3 3 3 3 3 3 3 2 2 2 3 5 4 3 3 3 3 3 3 3 4 4 3 5 6 6 6 6 6 4 4 3 5 11 11 12 12 12 11 12 12
3 3 3 3 3 3 3 2 3 3 3 3 3 4 4 4 4 3 3 3 3 3 4 4 4 5 6 6 6 6 6 6 5 5 4 10 10 11 11 11 11 12 12
4 4 3 4 3 3 2 2 3 2 3 3 3 4 5 4 4 4 3 3 3 3 3 4 5 5 5 5 6 6 6 5 5 5 4 6 11 10 10 10 10 11 11
5 4 4 4 4 4 3 3 3 2 3 3 3 4 4 5 5 4 4 3 3 3 4 4 5 5 5 5 6 5 5 5 5 5 5 4 5 9 10 9 9 10 9
5 4 4 4 4 4 3 3 3 3 3 3 3 3 5 5 5 5 4 3 3 3 4 4 4 5 4 4 4 4 4 4 5 5 4 4 4 4 7 10 9 9 8
4 4 4 3 4 4 4 3 3 3 3 2 3 3 4 5 5 5 4 3 4 4 3 4 4 4 5 4 4 4 4 3 3 4 4 4 4 4 4 7 9 8 8
3 3 3 3 3 3 3 3 2 2 2 2 2 3 4 4 5 5 4 4 4 4 3 4 5 4 4 5 5 5 4 3 3 3 3 3 3 4 4 4 4 5 7
3 2 2 2 2 3 2 3 3 3 2 2 2 3 4 4 5 5 4 4 4 4 5 5 5 6 4 4 4 3 3 3 3 2 2 2 3 3 3 3 2 2 3
3 2 2 2 2 2 2 2 2 3 2 2 2 2 3 4 4 5 6 5 4 4 5 6 5 4 2 2 4 4 2 2 2 2 1 1 1 2 2 2 2 2 2
3 3 3 2 2 2 2 2 2 2 2 1 2 2 2 4 4 4 5 5 5 5 5 5 6 6 5 2 2 4 4 4 1 1 1 1 1 1 1 1 2 1 2
3 3 2 2 2 2 3 3 4 3 3 3 2 2 2 3 4 4 5 5 5 4 5 5 4 4 6 4 1 1 2 4 4 1 1 1 0 0 0 0 0 1 1
2 2 2 2 2 2 3 3 4 2 1 1 2 2 2 2 3 4 4 5 5 4 5 5 4 4 4 5 3 2 2 1 2 3 2 1 1 1 1 1 1 0 0
1 1 1 2 2 2 2 3 3 4 3 2 3 3 2 2 2 3 4 4 4 4 5 5 5 5 4 4 3 3 4 3 3 3 3 2 1 2 1 1 1 1 1
Wind_Direction
195 200 160 140 133 127 122 115 111 105 102 100 100 97 94 92 92 91 89 88 88 87 87 87 88 88 88 87 86 85 83 80 81 80 78 81 84 85 83 80 76 75 79
164 171 148 137 131 129 125 119 114 110 106 103 103 102 99 96 95 94 92 91 89 87 89 89 89 90 90 89 87 85 83 81 78 75 72 74 81 84 83 81 80 82 80
133 146 144 135 128 127 126 123 118 114 109 107 106 106 103 100 97 94 94 91 90 90 91 91 90 91 90 89 88 87 84 82 78 74 69 66 77 84 84 83 83 83 82
129 131 138 134 130 126 125 125 121 118 114 111 111 109 106 102 100 97 95 92 89 90 93 93 92 93 92 91 90 87 84 81 77 72 64 60 71 83 85 85 84 83 82
117 115 126 129 131 128 126 124 122 121 120 117 115 113 109 105 102 98 94 91 90 91 95 94 93 93 93 92 89 87 84 80 75 68 61 58 67 83 84 84 83 82 81
110 107 124 121 124 126 127 126 123 122 121 118 119 116 112 108 104 99 95 92 91 96 98 98 96 94 93 92 90 88 84 78 70 62 58 58 69 83 86 84 84 83 81
109 103 118 121 120 118 124 129 126 123 120 118 119 116 111 108 105 101 97 94 93 99 100 99 97 95 92 91 90 89 85 78 72 64 57 59 77 85 85 85 86 85 84
111 98 106 118 115 116 116 122 126 125 122 117 117 116 111 108 106 103 100 98 96 99 99 99 99 95 93 92 89 87 83 78 74 67 59 62 82 85 86 86 85 85 84
106 99 87 93 101 106 110 110 109 115 120 117 115 110 107 106 105 103 101 101 97 94 96 95 95 94 93 91 88 85 81 74 67 62 65 66 82 85 86 86 85 85 84
100 99 97 90 85 83 93 103 106 104 106 111 111 106 103 103 102 101 98 99 98 95 93 93 90 90 91 88 86 84 79 71 62 56 57 76 82 85 86 86 85 84 84
99 94 102 100 96 93 92 94 95 101 100 98 104 103 97 92 92 92 95 95 96 94 93 92 91 86 85 83 83 79 72 64 62 54 55 79 84 85 85 85 85 84 84
136 122 113 111 109 107 103 90 83 87 93 85 98 103 98 96 93 91 89 90 90 87 86 87 85 81 77 73 74 74 68 62 60 50 65 81 85 86 87 87 85 84 83
155 143 129 125 121 119 116 110 94 94 97 94 99 101 102 93 92 83 84 81 81 80 77 76 72 69 72 73 75 73 68 64 55 48 62 81 86 88 88 88 87 87 86
149 152 142 135 132 125 126 126 121 119 116 113 113 111 110 106 99 93 91 88 83 85 87 79 80 77 77 77 77 76 70 67 58 50 58 74 83 85 87 90 91 89 87
158 157 157 150 146 139 129 138 130 139 135 132 127 120 121 119 116 106 100 95 90 91 95 92 88 87 83 77 73 75 74 69 62 55 51 64 77 83 87 89 90 89 87
170 170 165 160 156 145 138 142 140 147 140 135 133 128 124 123 123 120 111 103 101 100 96 98 98 95 87 84 75 69 70 71 64 59 51 49 57 70 82 87 87 88 87
175 172 170 166 156 152 151 156 144 149 144 141 138 131 128 124 125 124 121 116 114 109 106 101 95 91 89 84 75 68 68 71 70 59 51 45 41 51 65 77 82 85 87
170 170 173 169 159 158 157 157 149 150 146 149 144 135 131 131 130 124 124 125 120 113 113 112 106 100 91 86 76 63 61 69 71 65 57 49 41 35 46 61 70 77 85
170 169 167 160 161 159 157 155 149 144 142 150 145 141 142 139 136 132 131 131 126 118 116 120 110 112 108 95 85 67 54 59 63 70 66 57 51 45 36 49 56 61 70
156 154 151 140 141 151 146 137 129 126 132 144 143 147 146 144 140 134 133 132 132 127 122 123 118 109 115 115 94 68 49 46 51 59 65 58 55 55 49 46 38 44 56
127 129 137 138 138 135 149 157 155 162 170 169 155 154 151 145 146 142 141 141 143 140 142 136 129 118 110 120 98 74 36 35 43 35 45 59 56 52 59 56 44 35 36
148 140 133 139 146 150 155 168 165 155 174 176 159 156 154 150 155 155 151 153 150 141 143 143 140 136 141 154 130 123 96 11 0 10 16 74 59 44 56 55 55 50 36
161 163 167 164 151 139 118 104 101 96 107 131 158 174 175 164 166 161 158 156 154 152 160 163 160 153 157 184 152 144 151 186 204 329 351 44 82 69 47 45 55 47 41
197 177 168 168 145 142 140 147 147 161 179 191 183 184 180 170 167 164 161 160 162 162 166 174 171 165 158 167 171 128 144 153 152 168 301 332 3 152 202 43 39 28 39
196 181 176 164 149 140 153 162 166 159 174 157 158 165 174 173 173 170 168 163 167 171 173 174 170 173 172 171 168 152 120 97 123 148 194 251 313 272 236 220 222 234 348
82 156 169 166 167 161 157 171 181 175 161 155 175 178 187 186 181 183 175 172 172 176 180 181 179 179 180 175 171 169 165 164 171 160 173 196 230 272 263 232 221 225 238